Location: Bannatyne
(13.0833°N, 59.5333°W)
Time: 10:06:24
(UTC+00:00)

Envisat - Visible Passes

Search period start: 18 June 2021 00:00
Search period end: 28 June 2021 00:00
Orbit: 764 x 766 km, 98.1° (Epoch: 17 June)

Date Brightness Start Highest point End Pass type
(mag) Time Alt. Az. Time Alt. Az. Time Alt. Az.
18 Jun 3.7 08:51:15 10° NNE 08:56:13 58° ESE 09:01:12 10° S visible
19 Jun 5.4 08:15:40 10° NE 08:19:25 21° E 08:23:08 10° SSE visible
21 Jun 4.2 08:39:59 10° NNE 08:44:46 42° E 08:49:32 10° S visible
22 Jun 5.7 08:05:04 10° ENE 08:07:56 15° E 08:10:47 10° SE visible
23 Jun 3.1 09:05:00 10° NNE 09:10:04 87° E 09:15:09 10° SSW visible
24 Jun 4.8 08:28:51 10° NE 08:33:18 31° E 08:37:44 10° SSE visible
25 Jun 5.9 07:55:21 10° E 07:56:26 11° E 07:57:31 10° ESE visible
26 Jun 3.5 08:53:36 10° NNE 08:58:37 64° ESE 09:03:38 10° S visible
27 Jun 5.2 08:17:52 10° NE 08:21:49 23° E 08:25:45 10° SSE visible
